Probability
5 14 23 20 12 7 6 15 40 68 88 97 100 97 89 76 65 54 40 23 9 3 5 8 10 19 31 32 22 13 4 0 0 0 0 0 0 0 0 0 0 0 0
13 30 41 33 20 11 7 12 31 59 83 94 96 91 81 70 63 58 50 35 17 7 8 14 20 32 44 41 28 15 5 0 0 0 0 0 0 0 0 0 0 0 0
22 47 61 48 29 16 9 10 25 52 75 85 85 78 65 53 51 57 59 48 28 15 15 21 30 41 48 41 26 13 4 0 0 0 0 0 0 0 0 0 0 0 0
27 56 72 54 32 18 10 9 19 38 56 63 64 59 45 31 29 42 53 48 33 25 25 27 30 35 37 29 17 8 3 0 0 0 0 0 0 0 0 0 0 0 0
34 63 80 63 40 24 13 9 13 24 32 37 41 38 25 16 17 28 41 42 36 34 33 31 28 25 22 17 10 5 3 1 0 0 0 0 0 0 0 0 0 0 0
43 68 82 73 55 34 17 10 11 16 16 16 19 18 13 10 13 21 31 36 37 34 31 29 24 18 13 8 5 3 2 1 0 0 0 0 0 0 0 0 0 0 0
46 62 72 67 52 29 13 7 7 8 6 4 5 7 7 6 6 12 20 25 26 23 19 17 17 14 10 5 2 1 1 0 0 0 0 0 0 0 0 0 0 0 0
32 40 44 40 28 14 5 3 4 3 1 0 0 2 5 3 1 4 9 11 11 8 6 6 8 8 7 4 1 1 1 0 0 0 0 0 0 0 0 0 0 0 0
14 16 17 14 9 3 1 2 5 6 5 2 0 1 2 1 0 1 3 3 3 2 1 2 3 3 2 2 1 1 1 1 0 0 0 0 0 0 0 0 0 0 0
5 5 5 3 3 6 10 12 12 14 13 7 2 0 0 0 0 1 1 1 1 0 0 1 1 1 0 0 1 2 2 1 0 0 1 0 0 1 0 0 0 0 0
2 2 2 2 5 18 33 36 29 26 26 18 7 3 2 2 1 1 1 1 0 0 0 0 0 0 0 0 1 1 1 1 0 0 0 0 0 0 0 0 0 0 0
0 0 0 1 7 25 50 60 52 46 45 34 17 8 6 5 2 0 0 1 1 0 0 0 0 0 0 0 0 0 0 0 0 0 0 0 0 0 0 0 0 0 0
0 0 0 0 5 21 45 63 68 70 68 53 30 14 9 8 4 2 2 3 3 2 1 0 0 0 0 0 0 0 0 0 0 0 0 0 0 0 0 0 0 0 0
0 0 0 0 3 12 27 46 67 83 84 68 41 19 11 14 13 10 9 7 4 2 1 1 0 0 0 0 0 0 0 0 0 0 0 0 0 0 0 0 0 0 0
0 0 0 0 1 5 13 30 58 80 85 72 46 23 18 29 36 32 26 17 7 2 2 2 1 0 0 0 0 0 0 0 0 0 0 0 0 0 0 0 0 0 0
1 1 1 2 3 4 11 29 53 69 72 63 49 40 42 55 65 61 49 34 19 9 5 3 1 0 0 0 0 0 0 0 0 0 0 0 0 0 0 0 0 0 0
4 4 4 5 7 12 22 39 53 57 57 57 61 69 74 79 85 79 67 54 38 24 13 6 2 1 1 0 0 0 0 0 0 0 0 0 0 0 0 0 0 0 0
5 5 4 5 8 16 27 38 42 42 44 51 62 74 80 83 85 78 68 58 46 34 21 9 4 2 1 0 0 0 0 0 0 0 0 0 0 0 0 0 0 0 0
2 2 2 2 4 9 15 20 20 20 22 27 34 43 51 56 59 57 50 42 34 28 21 12 5 3 1 0 0 0 0 0 0 0 0 0 0 0 0 0 0 0 0
0 0 0 0 1 1 3 4 4 4 4 5 7 12 16 20 23 25 23 19 15 15 15 11 7 4 1 1 0 0 0 0 0 0 0 0 0 0 0 0 0 0 0
0 0 0 0 0 0 1 1 1 1 0 0 1 1 1 2 3 4 5 4 4 5 7 8 7 5 3 2 1 0 0 0 0 0 0 0 0 0 0 0 0 0 0
0 0 0 0 0 0 0 0 0 0 0 0 0 0 0 0 0 0 0 0 0 0 1 3 3 3 3 2 1 0 0 0 0 0 0 0 0 0 0 0 0 0 0
0 0 0 0 0 0 0 0 0 0 0 0 0 0 0 0 0 0 0 0 0 0 0 0 1 1 2 1 0 0 0 0 0 0 0 0 0 0 0 0 0 0 0
0 0 0 0 0 0 0 0 0 0 0 0 0 0 0 0 0 0 0 0 0 0 0 0 0 0 0 0 0 0 0 0 0 0 0 0 0 0 0 0 0 0 0
0 0 0 0 0 0 0 0 0 0 0 0 0 0 0 0 0 0 0 0 0 0 0 0 0 0 0 0 0 0 0 0 0 0 0 0 0 0 0 0 0 0 0
0 0 0 0 0 0 0 0 0 0 0 0 0 0 0 0 0 0 0 0 0 0 0 0 0 0 0 0 0 0 0 0 0 0 0 0 0 0 0 0 0 0 0
Wind_Speed
9 7 8 7 5 3 1 3 5 6 5 4 3 2 2 4 3 3 5 4 3 3 3 4 4 3 5 5 4 3 3 2 2 3 2 0 0 4 1 1 3 4 4
8 9 10 8 5 5 3 1 3 3 4 4 4 2 2 3 4 4 5 5 5 4 3 5 3 3 4 5 4 4 2 2 2 3 3 1 0 1 2 2 2 4 2
11 14 12 9 7 6 5 3 3 5 5 5 3 2 1 1 2 4 4 5 6 6 5 5 5 4 4 4 4 4 4 2 2 2 4 3 3 2 2 4 2 3 2
6 13 12 11 9 7 6 6 3 5 6 5 3 3 3 4 4 4 5 6 7 6 6 5 5 5 4 5 5 5 4 4 4 4 4 4 4 4 2 2 3 5 4
7 13 12 10 10 8 5 6 5 5 6 4 4 3 3 4 4 4 6 6 5 6 6 6 6 6 5 6 6 6 6 5 5 5 5 3 2 3 4 3 3 2 3
8 13 11 11 10 7 6 6 6 6 4 2 3 5 5 4 3 2 3 4 3 4 6 7 6 7 6 7 7 7 8 7 7 6 6 4 3 2 2 3 4 4 4
10 13 12 10 9 7 6 6 7 6 4 4 6 6 5 3 3 4 4 3 2 3 4 5 6 6 7 7 7 7 8 9 9 8 6 4 3 3 2 3 3 4 3
10 12 11 10 9 8 7 6 7 6 5 4 4 2 7 2 1 3 2 3 2 3 3 4 4 5 6 6 7 6 7 7 8 9 8 5 4 3 2 2 3 3 2
11 12 11 10 9 8 7 6 7 6 5 5 2 1 4 4 3 2 2 2 2 2 2 2 2 3 3 4 4 4 6 6 7 7 7 5 3 2 1 1 3 5 4
9 11 10 10 10 8 7 7 7 7 6 4 2 2 3 4 3 1 2 3 3 4 3 2 2 2 2 2 2 2 3 4 5 5 6 4 2 2 1 1 0 2 4
6 4 2 5 9 10 9 8 7 6 7 6 4 5 2 2 3 2 2 2 2 4 4 3 3 3 3 3 3 3 3 4 4 4 4 3 2 0 1 1 1 1 1
2 4 3 4 5 9 10 10 9 7 7 6 5 5 5 4 3 4 4 4 4 4 4 5 5 4 4 4 4 4 4 4 5 5 5 5 4 3 1 1 1 2 1
5 1 1 1 2 3 6 8 9 8 8 6 5 5 5 6 5 4 5 4 5 5 5 5 6 6 6 5 5 5 5 5 5 6 6 6 6 4 1 0 1 1 3
7 5 1 2 3 3 4 5 7 8 9 7 5 5 5 6 5 4 4 4 5 5 6 6 7 7 7 6 6 6 5 5 5 5 6 6 6 5 4 2 2 2 2
7 5 3 2 2 3 3 3 4 7 9 7 5 5 5 5 5 4 4 3 4 4 5 5 6 7 7 7 7 7 7 6 6 6 6 7 8 10 8 5 4 3 3
5 4 3 1 1 2 3 3 3 5 7 8 7 5 4 2 4 3 4 4 4 4 3 4 5 6 6 9 11 7 6 7 7 7 8 9 11 13 15 14 11 8 6
9 7 7 5 3 3 4 4 4 4 3 3 3 3 2 1 2 3 4 4 4 4 3 3 4 5 5 10 12 10 4 4 5 7 7 7 8 12 9 13 15 13 14
12 11 9 9 10 10 9 8 8 8 8 8 7 6 5 3 2 3 3 4 4 5 5 5 5 5 7 11 11 9 5 4 5 5 5 6 6 8 9 7 7 8 8
11 10 10 11 11 10 10 10 10 9 9 8 8 7 7 6 5 4 4 4 4 4 4 5 5 5 6 11 11 9 3 4 6 5 4 3 2 4 8 5 5 5 4
9 9 9 10 10 10 9 9 9 8 7 7 7 6 6 5 5 5 4 4 4 3 2 3 4 5 5 10 12 10 3 3 4 3 1 2 3 4 4 3 3 4 3
7 7 7 7 7 8 8 8 7 6 5 5 4 4 4 4 4 4 4 4 3 2 2 2 2 2 3 8 10 9 2 1 2 2 1 2 5 5 3 1 1 2 2
5 5 5 5 6 6 6 6 5 3 3 3 2 2 3 4 4 4 4 4 3 3 2 2 1 0 3 4 5 6 3 1 2 2 1 3 5 4 2 1 2 2 1
4 3 3 3 4 5 5 4 3 2 2 2 2 2 3 3 4 5 4 3 3 2 2 1 1 1 2 3 4 4 2 1 1 1 3 5 5 4 2 3 3 2 1
3 1 0 3 3 3 4 4 3 3 1 3 2 4 5 5 5 5 5 5 5 4 3 2 1 0 1 2 2 2 2 2 2 2 3 4 3 1 1 3 2 2 1
3 1 2 2 1 3 4 4 4 5 3 3 4 5 4 4 4 5 5 5 6 6 4 4 3 3 3 3 4 2 1 1 1 2 2 2 2 2 2 2 2 2 2
2 2 2 2 2 3 4 4 3 5 4 4 4 3 2 2 2 3 4 9 8 10 12 12 8 5 6 4 5 5 5 4 3 2 1 2 2 2 2 2 2 1 1
Wind_Direction
190 173 138 119 122 125 136 134 146 165 152 139 146 149 152 150 161 168 179 183 199 216 174 162 186 159 146 148 148 127 136 131 151 113 110 181 322 103 151 116 103 102 126
171 133 129 126 139 126 100 59 141 142 132 128 140 163 188 190 178 176 182 184 197 209 199 165 149 131 136 142 138 123 141 174 176 140 141 174 354 303 158 98 144 155 172
167 145 142 133 126 117 123 87 65 100 94 111 116 137 163 235 197 179 190 193 203 210 192 184 156 142 141 148 147 141 154 183 248 189 158 169 192 188 178 196 199 133 134
159 143 139 135 131 125 129 126 111 116 118 127 148 169 179 200 206 193 193 198 206 207 197 189 170 164 159 163 173 166 165 166 220 255 221 187 165 163 171 212 197 167 179
138 133 134 132 126 125 125 118 119 105 118 146 156 179 212 219 221 201 185 196 202 202 195 194 187 187 180 182 187 182 180 183 196 233 248 237 191 194 143 179 202 179 181
131 126 122 116 113 114 114 114 118 101 105 135 172 189 208 214 205 185 170 185 182 198 205 203 201 199 195 198 199 195 191 192 200 217 243 224 193 217 167 163 181 185 198
132 125 123 121 125 133 139 133 125 126 153 198 217 198 178 205 197 176 170 168 175 191 216 210 208 211 210 208 203 202 201 199 201 209 232 237 208 209 205 157 174 181 181
131 130 133 135 144 151 156 152 145 152 165 222 243 192 137 128 67 99 124 155 162 182 201 213 216 219 216 212 206 204 205 198 199 208 216 241 244 229 212 156 151 145 175
140 141 147 150 155 160 164 162 154 158 171 220 229 321 104 119 118 132 130 127 153 166 165 188 205 204 207 209 202 202 201 193 192 199 207 222 246 267 260 149 142 149 172
141 149 153 158 162 166 169 175 177 174 174 213 181 108 80 117 92 97 141 156 161 134 142 178 175 152 143 173 183 192 195 185 182 182 187 197 215 264 293 320 87 147 165
49 45 130 171 170 167 171 177 188 186 170 186 170 135 162 138 148 173 125 130 138 139 163 162 162 148 144 150 158 173 175 179 170 172 167 162 139 180 299 335 339 306 163
131 153 177 195 184 175 178 183 189 187 168 175 164 166 168 162 191 182 169 184 168 163 179 161 160 155 155 156 159 169 171 173 166 158 147 139 124 100 38 0 319 294 277
327 323 142 190 199 188 187 185 186 177 158 165 174 174 177 183 203 199 177 182 170 177 182 168 169 167 164 163 160 154 154 154 155 154 150 147 138 127 132 260 285 294 296
312 309 252 209 202 208 205 198 186 164 153 160 182 198 205 186 193 202 176 183 190 189 192 183 172 168 168 170 170 168 168 165 166 168 169 171 170 167 181 209 237 256 279
297 289 276 235 178 185 198 205 177 156 153 158 184 207 225 191 181 190 174 197 210 210 201 182 175 169 171 180 178 179 182 182 187 193 194 196 198 200 202 209 215 224 239
329 335 331 19 116 159 162 153 144 140 149 162 186 203 224 204 177 190 191 206 208 223 214 188 177 173 183 176 176 183 191 194 199 204 207 209 211 220 222 227 229 224 229
19 26 27 37 48 82 100 99 102 101 119 146 161 161 180 233 212 225 226 214 208 214 219 207 189 184 173 172 179 193 208 223 217 213 212 216 214 212 216 226 233 239 242
27 29 36 42 50 58 64 65 59 56 49 43 36 32 25 3 329 290 268 241 226 214 210 209 203 194 178 179 179 184 214 253 256 240 224 215 217 203 201 209 216 222 229
24 29 37 47 49 48 55 63 62 56 48 36 26 22 18 7 353 331 309 287 267 244 215 210 209 203 181 182 180 174 203 243 259 258 246 230 216 194 191 196 218 229 235
25 29 34 43 50 49 51 59 59 56 48 39 33 25 20 3 354 342 329 316 298 278 249 222 207 201 188 185 183 183 204 238 262 274 272 112 106 101 155 194 213 221 220
28 38 40 39 45 54 57 56 54 56 55 47 39 27 18 4 9 350 342 337 329 323 311 286 243 207 182 176 182 185 214 271 323 339 3 96 119 129 149 174 208 189 184
43 44 46 45 45 46 63 70 52 52 73 59 30 29 46 20 14 4 357 355 356 347 328 309 283 204 127 149 178 186 203 356 338 335 14 111 129 139 159 156 143 138 147
66 58 53 56 64 55 45 63 53 7 80 74 12 18 64 55 32 18 8 1 3 351 325 305 272 214 138 135 155 176 193 214 324 32 91 132 141 144 162 163 152 172 197
79 19 58 69 62 63 59 47 21 328 349 107 57 52 53 48 45 32 18 19 16 9 7 1 349 122 128 123 146 177 193 195 202 166 121 127 127 278 282 160 197 228 212
122 317 36 34 23 75 75 54 13 338 349 67 75 77 73 67 64 62 39 26 45 36 27 14 19 33 62 38 43 60 81 175 208 150 142 163 171 216 224 201 202 196 157
137 139 113 298 338 61 80 78 22 349 14 49 51 60 87 84 101 121 101 57 59 55 53 46 41 55 49 43 53 64 62 60 66 105 194 224 221 222 222 212 209 200 206